When you browse on this site, cookies collect data to enhance your experience and personalize the content and advertising you see.
Visit our Privacy Policy to learn more. By continuing to use the site, you agree to this use of cookies and data.

Hourly Weather Innsbruck

Today, 27 September, Sunday

Time Temperature Precipitation Wind Pressure Humidity
00:00 -7°C° 0 mm 2 mps 583 mmHg 82%
01:00 -4°C° 0 mm 1 mps 584 mmHg 81%
02:00 -4°C° 0 mm 1 mps 584 mmHg 79%
03:00 -4°C° 0 mm 1 mps 584 mmHg 77%
04:00 -4°C° 0 mm 1 mps 584 mmHg 76%
05:00 -3°C° 0 mm 1 mps 584 mmHg 74%
06:00 -3°C° 0 mm 1 mps 585 mmHg 73%
07:00 -2°C° 0 mm 1 mps 585 mmHg 71%
08:00 0°C° 0 mm 1 mps 586 mmHg 64%
09:00 +2°C° 0 mm 1 mps 587 mmHg 58%
10:00 +4°C° 0 mm 1 mps 588 mmHg 51%
11:00 +4°C° 0 mm 2 mps 589 mmHg 48%
12:00 +5°C° 0 mm 2 mps 589 mmHg 45%
13:00 +6°C° 0 mm 2 mps 589 mmHg 42%
14:00 +6°C° 0 mm 2 mps 589 mmHg 46%
15:00 +5°C° 0 mm 2 mps 589 mmHg 50%
16:00 +5°C° 0 mm 2 mps 588 mmHg 54%
17:00 +3°C° 0 mm 1 mps 588 mmHg 66%
18:00 +1°C° 0 mm 1 mps 587 mmHg 78%
19:00 -2°C° 0 mm 0 mps 586 mmHg 90%
20:00 -1°C° 0 mm 1 mps 586 mmHg 90%
21:00 -1°C° 0 mm 1 mps 586 mmHg 90%
22:00 -1°C° 0 mm 1 mps 586 mmHg 90%
23:00 -1°C° 0.1 mm 1 mps 586 mmHg 92%

Tomorrow, 28 September, Monday

Time Temperature Precipitation Wind Pressure Humidity
00:00 -1°C° 0.1 mm 1 mps 587 mmHg 94%
01:00 -1°C° 0.1 mm 1 mps 587 mmHg 96%
02:00 -1°C° 0.6 mm 1 mps 587 mmHg 96%
03:00 0°C° 0.6 mm 1 mps 586 mmHg 97%
04:00 0°C° 0.6 mm 1 mps 586 mmHg 97%
05:00 -2°C° 0.1 mm 2 mps 586 mmHg 97%
06:00 -2°C° 0.1 mm 2 mps 587 mmHg 97%
07:00 -2°C° 0.1 mm 2 mps 587 mmHg 97%
08:00 -2°C° 0.3 mm 2 mps 587 mmHg 96%
09:00 -1°C° 0.3 mm 2 mps 587 mmHg 96%
10:00 -1°C° 0.3 mm 2 mps 588 mmHg 95%
11:00 -1°C° 0.1 mm 2 mps 588 mmHg 94%
12:00 +1°C° 0.1 mm 2 mps 588 mmHg 93%
13:00 +2°C° 0.1 mm 1 mps 589 mmHg 91%
14:00 +2°C° 0.2 mm 1 mps 589 mmHg 92%
15:00 +2°C° 0.2 mm 1 mps 589 mmHg 94%
16:00 +2°C° 0.2 mm 1 mps 589 mmHg 95%
17:00 +1°C° 0.3 mm 1 mps 590 mmHg 96%
18:00 +1°C° 0.3 mm 1 mps 590 mmHg 96%
19:00 +1°C° 0.3 mm 1 mps 591 mmHg 97%
20:00 0°C° 0.1 mm 1 mps 591 mmHg 97%
21:00 0°C° 0.1 mm 1 mps 592 mmHg 97%
22:00 0°C° 0.1 mm 1 mps 592 mmHg 97%
23:00 0°C° 0.1 mm 1 mps 592 mmHg 97%

Day after tomorrow, 29 September, Tuesday

Time Temperature Precipitation Wind Pressure Humidity
00:00 0°C° 0.1 mm 1 mps 592 mmHg 97%
01:00 0°C° 0.1 mm 1 mps 592 mmHg 96%
02:00 -1°C° 0 mm 1 mps 592 mmHg 95%
03:00 -1°C° 0 mm 1 mps 592 mmHg 94%
04:00 -1°C° 0 mm 1 mps 592 mmHg 93%
05:00 -1°C° 0 mm 1 mps 592 mmHg 91%
06:00 -1°C° 0 mm 1 mps 593 mmHg 88%
07:00 -1°C° 0 mm 1 mps 593 mmHg 86%
08:00 +1°C° 0 mm 1 mps 594 mmHg 82%
09:00 +3°C° 0 mm 1 mps 595 mmHg 79%
10:00 +5°C° 0 mm 1 mps 595 mmHg 76%
11:00 +6°C° 0 mm 1 mps 596 mmHg 73%
12:00 +7°C° 0 mm 1 mps 596 mmHg 70%
13:00 +8°C° 0 mm 1 mps 597 mmHg 67%
14:00 +7°C° 0.1 mm 1 mps 597 mmHg 72%
15:00 +7°C° 0.1 mm 1 mps 596 mmHg 77%
16:00 +6°C° 0.1 mm 1 mps 596 mmHg 82%
17:00 +5°C° 0.2 mm 1 mps 596 mmHg 86%
18:00 +4°C° 0.2 mm 1 mps 595 mmHg 91%
19:00 +3°C° 0.2 mm 1 mps 595 mmHg 96%
20:00 +3°C° 0.1 mm 1 mps 595 mmHg 95%
21:00 +3°C° 0.1 mm 1 mps 595 mmHg 95%
22:00 +2°C° 0.1 mm 1 mps 595 mmHg 95%
23:00 +2°C° 0.1 mm 1 mps 595 mmHg 94%

30 September, Wednesday

Time Temperature Precipitation Wind Pressure Humidity
00:00 +2°C° 0.1 mm 1 mps 595 mmHg 94%
01:00 +2°C° 0.1 mm 1 mps 595 mmHg 93%
02:00 +2°C° 0 mm 1 mps 595 mmHg 93%
03:00 +2°C° 0 mm 1 mps 594 mmHg 93%
04:00 +2°C° 0 mm 1 mps 594 mmHg 92%
05:00 +2°C° 0 mm 1 mps 594 mmHg 92%
06:00 +2°C° 0 mm 1 mps 594 mmHg 92%
07:00 +2°C° 0 mm 1 mps 594 mmHg 91%
08:00 +4°C° 0 mm 1 mps 595 mmHg 87%
09:00 +6°C° 0 mm 1 mps 595 mmHg 84%
10:00 +8°C° 0 mm 1 mps 596 mmHg 80%
11:00 +8°C° 0 mm 1 mps 596 mmHg 77%
12:00 +9°C° 0 mm 1 mps 596 mmHg 73%
13:00 +10°C° 0 mm 1 mps 596 mmHg 70%
14:00 +10°C° 0 mm 1 mps 596 mmHg 72%
15:00 +9°C° 0 mm 1 mps 595 mmHg 74%
16:00 +9°C° 0 mm 1 mps 595 mmHg 75%
17:00 +7°C° 0 mm 1 mps 594 mmHg 82%
18:00 +5°C° 0 mm 1 mps 593 mmHg 88%
19:00 +2°C° 0 mm 0 mps 592 mmHg 95%
20:00 +3°C° 0 mm 1 mps 592 mmHg 94%
21:00 +2°C° 0 mm 1 mps 592 mmHg 93%
22:00 +2°C° 0 mm 1 mps 592 mmHg 93%
23:00 +2°C° 0 mm 1 mps 591 mmHg 91%

1 October, Thursday

Time Temperature Precipitation Wind Pressure Humidity
00:00 +2°C° 0 mm 1 mps 591 mmHg 90%
01:00 +2°C° 0 mm 1 mps 591 mmHg 89%
02:00 +2°C° 0 mm 1 mps 590 mmHg 88%
03:00 +1°C° 0 mm 1 mps 590 mmHg 86%
04:00 +1°C° 0 mm 1 mps 590 mmHg 85%
05:00 +2°C° 0 mm 1 mps 590 mmHg 83%
06:00 +2°C° 0 mm 1 mps 590 mmHg 82%
07:00 +3°C° 0 mm 1 mps 590 mmHg 80%
08:00 +5°C° 0 mm 1 mps 590 mmHg 75%
09:00 +7°C° 0 mm 1 mps 591 mmHg 69%
10:00 +10°C° 0 mm 1 mps 591 mmHg 64%
11:00 +10°C° 0 mm 1 mps 591 mmHg 62%
12:00 +10°C° 0 mm 2 mps 591 mmHg 59%
13:00 +12°C° 0 mm 2 mps 591 mmHg 57%
14:00 +10°C° 0 mm 2 mps 591 mmHg 63%
15:00 +9°C° 0 mm 2 mps 590 mmHg 69%
16:00 +8°C° 0 mm 2 mps 590 mmHg 75%
17:00 +8°C° 0.3 mm 1 mps 589 mmHg 82%
18:00 +6°C° 0.3 mm 1 mps 589 mmHg 89%
19:00 +5°C° 0.3 mm 1 mps 588 mmHg 96%
20:00 +4°C° 0.8 mm 1 mps 588 mmHg 96%
21:00 +4°C° 0.8 mm 1 mps 588 mmHg 97%
22:00 +4°C° 0.8 mm 1 mps 588 mmHg 98%
23:00 +4°C° 1.4 mm 1 mps 588 mmHg 98%

2 October, Friday

Time Temperature Precipitation Wind Pressure Humidity
00:00 +2°C° 1.4 mm 2 mps 587 mmHg 98%
01:00 +2°C° 1.4 mm 2 mps 587 mmHg 98%
02:00 +1°C° 2.5 mm 2 mps 586 mmHg 99%
03:00 -1°C° 2.5 mm 2 mps 585 mmHg 99%
04:00 -2°C° 2.5 mm 2 mps 585 mmHg 99%
05:00 0°C° 2.4 mm 1 mps 585 mmHg 98%
06:00 -1°C° 2.4 mm 1 mps 585 mmHg 98%
07:00 -1°C° 2.4 mm 1 mps 585 mmHg 97%
08:00 0°C° 0.1 mm 1 mps 585 mmHg 96%
09:00 +1°C° 0.1 mm 1 mps 585 mmHg 96%
10:00 +2°C° 0.1 mm 1 mps 585 mmHg 95%
11:00 +3°C° 0 mm 1 mps 585 mmHg 93%
12:00 +4°C° 0 mm 1 mps 585 mmHg 92%
13:00 +4°C° 0 mm 2 mps 585 mmHg 90%
14:00 +5°C° 0 mm 2 mps 585 mmHg 90%
15:00 +5°C° 0 mm 2 mps 585 mmHg 91%
16:00 +4°C° 0 mm 3 mps 585 mmHg 91%
17:00 +3°C° 0 mm 3 mps 584 mmHg 93%
18:00 +2°C° 0 mm 3 mps 584 mmHg 94%
19:00 0°C° 0 mm 4 mps 583 mmHg 95%
20:00 0°C° 0 mm 4 mps 583 mmHg 95%
21:00 0°C° 0 mm 4 mps 583 mmHg 95%
22:00 0°C° 0 mm 4 mps 583 mmHg 94%
23:00 +1°C° 0.2 mm 4 mps 582 mmHg 94%
Show more